When you browse on this site, cookies collect data to enhance your experience and personalize the content and advertising you see.
Visit our Privacy Policy to learn more. By continuing to use the site, you agree to this use of cookies and data.
  • In United Kingdom
  • List of Countries
  • For 7 days
  • Water Temperature
  • Weather Map
  • Weather Widgets
  • user-avatar
    Login

    Hourly Weather Boruja

    Today, 7 April, Tuesday

    Time Temperature Precipitation Wind Pressure Humidity
    00:00 +10°C° 0 mm 4 mps 764 mmHg 63%
    01:00 +10°C° 0 mm 4 mps 764 mmHg 64%
    02:00 +8°C° 0 mm 4 mps 764 mmHg 65%
    03:00 +8°C° 0 mm 3 mps 764 mmHg 67%
    04:00 +8°C° 0 mm 3 mps 764 mmHg 68%
    05:00 +8°C° 0 mm 3 mps 765 mmHg 68%
    06:00 +9°C° 0 mm 3 mps 765 mmHg 67%
    07:00 +10°C° 0 mm 3 mps 765 mmHg 67%
    08:00 +12°C° 0 mm 3 mps 766 mmHg 62%
    09:00 +14°C° 0 mm 3 mps 766 mmHg 57%
    10:00 +17°C° 0 mm 3 mps 766 mmHg 52%
    11:00 +19°C° 0 mm 3 mps 766 mmHg 50%
    12:00 +20°C° 0 mm 3 mps 766 mmHg 48%
    13:00 +21°C° 0 mm 3 mps 767 mmHg 46%
    14:00 +21°C° 0 mm 3 mps 767 mmHg 48%
    15:00 +21°C° 0 mm 4 mps 767 mmHg 50%
    16:00 +21°C° 0 mm 4 mps 767 mmHg 52%
    17:00 +18°C° 0 mm 4 mps 767 mmHg 57%
    18:00 +15°C° 0 mm 4 mps 767 mmHg 62%
    19:00 +13°C° 0 mm 4 mps 767 mmHg 67%
    20:00 +12°C° 0 mm 3 mps 767 mmHg 65%
    21:00 +11°C° 0 mm 3 mps 768 mmHg 64%
    22:00 +9°C° 0 mm 3 mps 768 mmHg 62%
    23:00 +9°C° 0 mm 3 mps 768 mmHg 63%

    Tomorrow, 8 April, Wednesday

    Time Temperature Precipitation Wind Pressure Humidity
    00:00 +8°C° 0 mm 2 mps 768 mmHg 65%
    01:00 +7°C° 0 mm 2 mps 768 mmHg 67%
    02:00 +7°C° 0 mm 2 mps 768 mmHg 68%
    03:00 +6°C° 0 mm 2 mps 768 mmHg 70%
    04:00 +6°C° 0 mm 2 mps 768 mmHg 71%
    05:00 +7°C° 0 mm 2 mps 767 mmHg 70%
    06:00 +7°C° 0 mm 2 mps 767 mmHg 69%
    07:00 +8°C° 0 mm 2 mps 767 mmHg 67%
    08:00 +10°C° 0 mm 2 mps 767 mmHg 65%
    09:00 +13°C° 0 mm 2 mps 767 mmHg 62%
    10:00 +15°C° 0 mm 2 mps 766 mmHg 59%
    11:00 +17°C° 0 mm 2 mps 766 mmHg 57%
    12:00 +18°C° 0 mm 2 mps 765 mmHg 54%
    13:00 +20°C° 0 mm 2 mps 764 mmHg 52%
    14:00 +20°C° 0 mm 2 mps 764 mmHg 49%
    15:00 +20°C° 0 mm 3 mps 763 mmHg 47%
    16:00 +20°C° 0 mm 3 mps 762 mmHg 44%
    17:00 +19°C° 0 mm 3 mps 762 mmHg 48%
    18:00 +17°C° 0 mm 2 mps 762 mmHg 52%
    19:00 +15°C° 0 mm 2 mps 761 mmHg 57%
    20:00 +14°C° 0 mm 2 mps 761 mmHg 57%
    21:00 +13°C° 0 mm 2 mps 762 mmHg 57%
    22:00 +12°C° 0 mm 2 mps 762 mmHg 57%
    23:00 +10°C° 0 mm 2 mps 761 mmHg 57%

    Day after tomorrow, 9 April, Thursday

    Time Temperature Precipitation Wind Pressure Humidity
    00:00 +10°C° 0 mm 2 mps 761 mmHg 58%
    01:00 +9°C° 0 mm 2 mps 760 mmHg 58%
    02:00 +9°C° 0 mm 2 mps 760 mmHg 61%
    03:00 +8°C° 0 mm 2 mps 760 mmHg 64%
    04:00 +8°C° 0 mm 2 mps 759 mmHg 67%
    05:00 +8°C° 0 mm 2 mps 759 mmHg 67%
    06:00 +9°C° 0 mm 3 mps 759 mmHg 67%
    07:00 +9°C° 0 mm 3 mps 759 mmHg 67%
    08:00 +11°C° 0 mm 3 mps 759 mmHg 64%
    09:00 +13°C° 0 mm 3 mps 759 mmHg 61%
    10:00 +15°C° 0 mm 4 mps 759 mmHg 57%
    11:00 +14°C° 0.3 mm 4 mps 759 mmHg 64%
    12:00 +14°C° 0.3 mm 3 mps 759 mmHg 70%
    13:00 +13°C° 0.3 mm 3 mps 759 mmHg 77%
    14:00 +13°C° 0 mm 4 mps 759 mmHg 74%
    15:00 +14°C° 0 mm 4 mps 759 mmHg 71%
    16:00 +14°C° 0 mm 4 mps 759 mmHg 68%
    17:00 +13°C° 0 mm 4 mps 759 mmHg 71%
    18:00 +12°C° 0 mm 4 mps 760 mmHg 74%
    19:00 +11°C° 0 mm 3 mps 760 mmHg 77%
    20:00 +10°C° 0 mm 3 mps 760 mmHg 81%
    21:00 +9°C° 0 mm 3 mps 761 mmHg 85%
    22:00 +8°C° 0 mm 3 mps 761 mmHg 89%
    23:00 +7°C° 0 mm 3 mps 762 mmHg 87%

    10 April, Friday

    Time Temperature Precipitation Wind Pressure Humidity
    00:00 +6°C° 0 mm 2 mps 762 mmHg 84%
    01:00 +5°C° 0 mm 2 mps 762 mmHg 81%
    02:00 +4°C° 0 mm 2 mps 762 mmHg 81%
    03:00 +4°C° 0 mm 2 mps 762 mmHg 80%
    04:00 +3°C° 0 mm 2 mps 762 mmHg 79%
    05:00 +3°C° 0 mm 3 mps 763 mmHg 76%
    06:00 +4°C° 0 mm 3 mps 763 mmHg 73%
    07:00 +5°C° 0 mm 3 mps 763 mmHg 69%
    08:00 +7°C° 0 mm 3 mps 763 mmHg 62%
    09:00 +9°C° 0 mm 3 mps 764 mmHg 54%
    10:00 +10°C° 0 mm 3 mps 764 mmHg 47%
    11:00 +11°C° 0 mm 3 mps 764 mmHg 43%
    12:00 +13°C° 0 mm 2 mps 763 mmHg 39%
    13:00 +14°C° 0 mm 2 mps 763 mmHg 35%
    14:00 +14°C° 0 mm 2 mps 763 mmHg 35%
    15:00 +14°C° 0 mm 2 mps 763 mmHg 35%
    16:00 +14°C° 0 mm 2 mps 762 mmHg 34%
    17:00 +13°C° 0 mm 1 mps 762 mmHg 39%
    18:00 +11°C° 0 mm 1 mps 762 mmHg 44%
    19:00 +10°C° 0 mm 1 mps 762 mmHg 48%
    20:00 +9°C° 0 mm 1 mps 762 mmHg 51%
    21:00 +8°C° 0 mm 1 mps 762 mmHg 53%
    22:00 +8°C° 0 mm 1 mps 762 mmHg 55%
    23:00 +7°C° 0 mm 1 mps 762 mmHg 56%

    11 April, Saturday

    Time Temperature Precipitation Wind Pressure Humidity
    00:00 +7°C° 0 mm 1 mps 762 mmHg 58%
    01:00 +7°C° 0 mm 1 mps 762 mmHg 60%
    02:00 +6°C° 0 mm 1 mps 761 mmHg 62%
    03:00 +6°C° 0 mm 1 mps 761 mmHg 65%
    04:00 +5°C° 0 mm 1 mps 761 mmHg 67%
    05:00 +5°C° 0 mm 2 mps 761 mmHg 67%
    06:00 +6°C° 0 mm 2 mps 761 mmHg 67%
    07:00 +6°C° 0 mm 2 mps 761 mmHg 66%
    08:00 +8°C° 0 mm 2 mps 760 mmHg 61%
    09:00 +10°C° 0 mm 2 mps 760 mmHg 56%
    10:00 +13°C° 0 mm 2 mps 760 mmHg 51%
    11:00 +14°C° 0 mm 2 mps 760 mmHg 47%
    12:00 +15°C° 0 mm 2 mps 759 mmHg 43%
    13:00 +17°C° 0 mm 2 mps 759 mmHg 39%
    14:00 +17°C° 0 mm 2 mps 758 mmHg 39%
    15:00 +18°C° 0 mm 1 mps 758 mmHg 38%
    16:00 +18°C° 0 mm 1 mps 757 mmHg 38%
    17:00 +16°C° 0 mm 1 mps 757 mmHg 43%
    18:00 +14°C° 0 mm 1 mps 757 mmHg 48%
    19:00 +13°C° 0 mm 2 mps 756 mmHg 53%
    20:00 +13°C° 0 mm 2 mps 756 mmHg 55%
    21:00 +13°C° 0 mm 2 mps 756 mmHg 58%
    22:00 +12°C° 0 mm 2 mps 756 mmHg 61%
    23:00 +12°C° 0.1 mm 2 mps 756 mmHg 68%

    12 April, Sunday

    Time Temperature Precipitation Wind Pressure Humidity
    00:00 +12°C° 0.1 mm 2 mps 756 mmHg 75%
    01:00 +12°C° 0.1 mm 2 mps 755 mmHg 82%
    02:00 +12°C° 0 mm 1 mps 755 mmHg 84%
    03:00 +12°C° 0 mm 1 mps 755 mmHg 86%
    04:00 +12°C° 0 mm 1 mps 755 mmHg 89%
    05:00 +13°C° 0 mm 1 mps 755 mmHg 88%
    06:00 +13°C° 0 mm 1 mps 755 mmHg 87%
    07:00 +13°C° 0 mm 2 mps 755 mmHg 86%
    08:00 +15°C° 0 mm 2 mps 755 mmHg 79%
    09:00 +17°C° 0 mm 2 mps 754 mmHg 71%
    10:00 +18°C° 0 mm 3 mps 754 mmHg 64%
    11:00 +19°C° 0.2 mm 3 mps 754 mmHg 62%
    12:00 +19°C° 0.2 mm 3 mps 754 mmHg 60%
    13:00 +19°C° 0.2 mm 4 mps 753 mmHg 58%
    14:00 +19°C° 0.2 mm 4 mps 753 mmHg 62%
    15:00 +18°C° 0.2 mm 4 mps 752 mmHg 67%
    16:00 +17°C° 0.2 mm 4 mps 752 mmHg 72%
    17:00 +16°C° 0 mm 3 mps 752 mmHg 76%
    18:00 +15°C° 0 mm 2 mps 752 mmHg 80%
    19:00 +14°C° 0 mm 1 mps 751 mmHg 85%
    20:00 +14°C° 0 mm 1 mps 751 mmHg 86%
    21:00 +14°C° 0 mm 1 mps 751 mmHg 88%
    22:00 +13°C° 0 mm 1 mps 751 mmHg 89%
    23:00 +13°C° 0.4 mm 1 mps 751 mmHg 91%
    Show more